Content
SEND FEEDBACK

Daily
Averages
Monthly
Summary
United States of America

TAMUNING, GUAM


Home > North America > United States > Guam
Elevation: 250 feet     Latitude: 13 29N     Longitude: 144 47E

WEATHER
 
SELECT A DAY
Number of Records: 341,631;   Date Range: 1/1/95 - 7/20/14
 
SHARE

PRINT THIS DATA

[ ← Previous Day ]
WEATHER ALMANAC - SEPTEMBER 20, 2013
[ Next Day → ]
[ °C ]   °F
Weather ElementAverageHighLow
Temperature76.8 °F80.6 °F (8:09 am) (6:20 am)
Dewpoint75.9 °F78.8 °F (8:04 am) (7:00 pm)
Humidity97.1 %100 % (12:05 am)89 % (8:39 am)
Barometer29.39 in29.61 in (8:19 am) (7:00 pm)
Wind Speed13.4 mph39.1 mph (12:50 am)
Wind Gust46 mph (12:54 am)
Weather ElementAverage
Visibility6.2 mi
Wind DirectionW (272.7 °)

Weather ElementTotal
Precipitation4.14 in
Heating Degree Days24.7 (Base 65)
Averaged from 190 records on September 20, 2013
WEATHER CONDITIONS BREAKOUT
WIND DIRECTION BREAKOUT
WEATHER BY HOUR - SEPTEMBER 20, 2013
[ °C ]   °F
Local TimeTemperatureDewpointHumidityBarometerVisibilityWind DirectionWind SpeedGust SpeedPrecipitationEventsConditions
12:05 AM75.2 °F75.2 °F100 %29.60 in10.0 miWest (280°)31.1 mph36.8 mphMostly Cloudy
12:23 AM77.0 °F75.2 °F94 %29.60 in10.0 miWest (270°)28.8 mph41.4 mphOvercast
12:24 AM77.0 °F75.2 °F94 %29.60 in10.0 miWest (270°)27.6 mph41.4 mphLight Drizzle
12:35 AM77.0 °F75.2 °F94 %29.58 in10.0 miWest (270°)29.9 mph41.4 mphLight Drizzle
12:50 AM77.0 °F75.2 °F94 %29.58 in9.0 miWest (260°)39.1 mph43.7 mphLight Drizzle
12:54 AM77.0 °F75.2 °F94 %29.57 in9.0 miWest (260°)32.2 mph46.0 mphOvercast
12:58 AM76.8 °F75.6 °F96 %29.45 in10.0 miWest (260°)29.9 mph46.0 mph0.01 inOvercast
1:28 AM77.0 °F75.2 °F94 %29.55 in10.0 miWest (270°)28.8 mph42.6 mphMostly Cloudy
1:32 AM77.0 °F75.2 °F94 %29.55 in6.0 miWest (270°)32.2 mph42.6 mphRainLight Rain
1:37 AM77.0 °F75.2 °F94 %29.55 in4.0 miWest (270°)34.5 mph42.6 mphRainLight Rain
1:42 AM77.0 °F75.2 °F94 %29.55 in5.0 miWest (270°)31.1 mph42.6 mphRainLight Rain
1:59 AM77.0 °F76.3 °F98 %29.43 in7.0 miWNW (300°)24.2 mph0.00 inRainLight Rain
2:04 AM77.0 °F77.0 °F100 %29.54 in9.0 miNW (310°)20.7 mph28.8 mphRainLight Rain
2:09 AM77.0 °F77.0 °F100 %29.54 in10.0 miNW (310°)24.2 mphRainLight Rain
2:14 AM77.0 °F77.0 °F100 %29.54 in10.0 miWNW (300°)24.2 mphRainLight Rain
2:35 AM77.0 °F77.0 °F100 %29.55 in7.0 miNW (310°)21.9 mph31.1 mphOvercast
2:40 AM77.0 °F77.0 °F100 %29.55 in5.0 miNW (310°)19.6 mphRainLight Rain
2:45 AM77.0 °F77.0 °F100 %29.55 in4.0 miNW (310°)19.6 mph25.3 mphRainLight Rain
2:56 AM77.0 °F77.0 °F100 %29.56 in4.0 miNW (310°)19.6 mph26.5 mphRainRain
2:59 AM77.0 °F77.0 °F100 %29.44 in4.0 miNW (310°)18.4 mph26.5 mph0.03 inRainRain
3:04 AM77.0 °F77.0 °F100 %29.56 in4.0 miNW (310°)16.1 mph26.5 mphRainHeavy Rain
3:14 AM77.0 °F77.0 °F100 %29.55 in4.0 miNW (320°)21.9 mph26.5 mphRainLight Rain
3:19 AM77.0 °F77.0 °F100 %29.55 in4.0 miNW (320°)20.7 mph26.5 mphRainLight Rain
3:28 AM77.0 °F77.0 °F100 %29.55 in6.0 miNW (320°)23.0 mphOvercast
3:37 AM77.0 °F77.0 °F100 %29.55 in7.0 miNW (320°)23.0 mphRainLight Rain
3:42 AM77.0 °F77.0 °F100 %29.55 in8.0 miNW (310°)20.7 mphRainLight Rain
3:47 AM77.0 °F77.0 °F100 %29.55 in6.0 miNW (310°)20.7 mph27.6 mphRainLight Rain
3:50 AM77.0 °F77.0 °F100 %29.55 in6.0 miNW (310°)19.6 mph27.6 mphOvercast
3:51 AM77.0 °F77.0 °F100 %29.55 in6.0 miNW (310°)18.4 mph27.6 mphRainLight Rain
3:58 AM77.9 °F77.0 °F97 %29.43 in9.0 miNW (310°)18.4 mph27.6 mph0.07 inRainLight Rain
4:18 AM77.0 °F77.0 °F100 %29.55 in10.0 miNW (310°)17.3 mph23.0 mphRainLight Rain
4:33 AM77.0 °F77.0 °F100 %29.55 in10.0 miNW (310°)17.3 mph26.5 mphMostly Cloudy
4:41 AM77.0 °F77.0 °F100 %29.55 in10.0 miNW (310°)17.3 mphRainLight Rain
4:58 AM72.7 °F72.1 °F98 %29.43 in5.0 miNW (310°)17.3 mph0.05 inRainRain
5:13 AM73.4 °F73.4 °F100 %29.56 in10.0 miNW (320°)13.8 mphRainLight Rain
5:33 AM73.4 °F73.4 °F100 %29.57 in8.0 miNW (320°)10.4 mphRainLight Rain
5:50 AM75.2 °F75.2 °F100 %29.57 in4.0 miNNW (330°)10.4 mphRainLight Rain
5:55 AM75.2 °F75.2 °F100 %29.57 in3.0 miNNW (330°)13.8 mphRainRain
5:58 AM73.4 °F73.4 °F100 %29.45 in3.0 miNNW (330°)13.8 mph19.6 mph0.09 inRainLight Rain
6:03 AM73.4 °F73.4 °F100 %29.57 in4.0 miNNW (340°)16.1 mph19.6 mphRainLight Rain
6:05 AM73.4 °F73.4 °F100 %29.57 in9.0 miNNW (330°)11.5 mph19.6 mphOvercast
6:15 AM73.4 °F73.4 °F100 %29.56 in10.0 miNNW (330°)11.5 mph20.7 mphOvercast
6:20 AM0.0 °F0.0 °F29.56 in10.0 miNNW (340°)13.8 mphOvercast
6:30 AM78.8 °F77.0 °F94 %29.57 in10.0 miNorth (350°)20.7 mph21.9 mphOvercast
6:45 AM78.8 °F77.0 °F94 %29.57 in10.0 miNW (320°)12.7 mphMostly Cloudy
6:50 AM78.8 °F77.0 °F94 %29.58 in10.0 miNW (320°)12.7 mphMostly Cloudy
6:58 AM78.6 °F77.2 °F95 %29.46 in10.0 miNorth (350°)20.7 mph23.0 mph0.01 inMostly Cloudy
7:06 AM78.8 °F77.0 °F94 %29.58 in10.0 miNNW (340°)16.1 mphRainLight Rain
7:11 AM78.8 °F77.0 °F94 %29.59 in10.0 miNNW (330°)11.5 mphRainLight Rain
7:21 AM78.8 °F77.0 °F94 %29.60 in4.0 miNW (320°)10.4 mphRainLight Rain
7:26 AM78.8 °F77.0 °F94 %29.59 in2.5 miNorth (360°)9.2 mphRainRain
7:31 AM78.8 °F77.0 °F94 %29.59 in1.2 miVariable6.9 mphRainLight Rain
7:36 AM78.8 °F77.0 °F94 %29.60 in1.0 miNorth (10°)12.7 mphRainLight Rain
7:41 AM78.8 °F77.0 °F94 %29.59 in2.0 miNNW (340°)16.1 mph18.4 mphRainRain
7:46 AM78.8 °F77.0 °F94 %29.60 in9.0 miNNW (330°)13.8 mph23.0 mphRainLight Rain
7:58 AM79.3 °F78.1 °F96 %29.48 in8.0 miNNW (330°)12.7 mph0.12 inLight Drizzle
8:04 AM78.8 °F78.8 °F100 %29.60 in9.0 miNorth (350°)10.4 mph21.9 mphOvercast
8:09 AM80.6 °F78.8 °F94 %29.60 in8.0 miNorth (350°)11.5 mph21.9 mphOvercast
8:19 AM80.6 °F78.8 °F94 %29.61 in10.0 miNW (320°)13.8 mphOvercast
8:24 AM80.6 °F78.8 °F94 %29.61 in10.0 miNNW (330°)12.7 mphOvercast
8:34 AM80.6 °F78.8 °F94 %29.61 in10.0 miNNW (330°)12.7 mph20.7 mphOvercast
8:39 AM80.6 °F77.0 °F89 %29.61 in10.0 miNNW (330°)12.7 mph20.7 mphOvercast
8:44 AM80.6 °F78.8 °F94 %29.61 in10.0 miNNW (340°)15.0 mphOvercast
8:51 AM80.6 °F78.8 °F94 %29.61 in9.0 miNNW (340°)17.3 mph21.9 mphRainLight Rain
8:58 AM80.1 °F78.8 °F96 %29.49 in10.0 miNNW (340°)20.7 mph0.00 inRainLight Rain
9:08 AM78.8 °F78.8 °F100 %29.61 in7.0 miNNW (340°)16.1 mphRainHeavy Rain
9:13 AM78.8 °F77.0 °F94 %29.61 in9.0 miNNW (340°)15.0 mphRainRain
9:36 AM78.8 °F77.0 °F94 %29.61 in1.5 miNW (310°)13.8 mphRainHeavy Rain
9:41 AM78.8 °F77.0 °F94 %29.61 in3.0 miNNW (340°)10.4 mphRainHeavy Rain
9:46 AM78.8 °F77.0 °F94 %29.60 in2.5 miNorth (350°)12.7 mphRainHeavy Rain
9:51 AM78.8 °F77.0 °F94 %29.61 in2.0 miNNE (20°)9.2 mph18.4 mphRainRain
9:56 AM78.8 °F77.0 °F94 %29.61 in6.0 miVariable5.8 mph18.4 mphRainLight Rain
9:58 AM78.3 °F77.0 °F96 %29.49 in7.0 miNNW (330°)6.9 mph0.74 inRainLight Rain
10:08 AM78.8 °F78.8 °F100 %29.61 in1.5 miNNW (340°)12.7 mph20.7 mphRainHeavy Rain
10:13 AM78.8 °F78.8 °F100 %29.61 in1.2 miNorth (350°)10.4 mph20.7 mphRainHeavy Rain
10:18 AM78.8 °F78.8 °F100 %29.61 in0.8 miNorth (350°)12.7 mph19.6 mphRainHeavy Rain
10:23 AM78.8 °F78.8 °F100 %29.60 in1.0 miNorth (350°)10.4 mph19.6 mphRainHeavy Rain
10:28 AM78.8 °F78.8 °F100 %29.60 in4.0 miNNW (340°)10.4 mph19.6 mphRainHeavy Rain
10:38 AM80.6 °F78.8 °F94 %29.60 in10.0 miNorth (350°)16.1 mph20.7 mphRainLight Rain
10:42 AM80.6 °F78.8 °F94 %29.60 in10.0 miNNW (340°)19.6 mphOvercast
10:58 AM80.1 °F78.8 °F96 %29.47 in10.0 miNNW (340°)16.1 mph24.2 mph0.31 inOvercast
11:03 AM80.6 °F78.8 °F94 %29.59 in10.0 miNNW (340°)16.1 mph24.2 mphOvercast
11:08 AM80.6 °F78.8 °F94 %29.59 in10.0 miNorth (350°)11.5 mph21.9 mphOvercast
11:11 AM80.6 °F78.8 °F94 %29.59 in10.0 miNorth (350°)12.7 mph21.9 mphRainLight Rain
11:21 AM80.6 °F77.0 °F89 %29.59 in10.0 miNNW (340°)18.4 mphRainLight Rain
11:26 AM80.6 °F77.0 °F89 %29.59 in10.0 miNorth (350°)16.1 mph21.9 mphRainRain
11:53 AM80.6 °F78.8 °F94 %29.57 in9.0 miNorth (350°)16.1 mph23.0 mphMostly Cloudy
11:58 AM80.6 °F78.8 °F94 %29.45 in8.0 miNorth (350°)18.4 mph23.0 mph0.03 inMostly Cloudy
12:08 PM80.6 °F78.8 °F94 %29.56 in10.0 miNorth (350°)17.3 mph24.2 mphMostly Cloudy
12:13 PM80.6 °F78.8 °F94 %29.56 in10.0 miNorth (350°)13.8 mphMostly Cloudy
12:18 PM80.6 °F78.8 °F94 %29.56 in10.0 miNorth (350°)12.7 mphMostly Cloudy
12:21 PM80.6 °F78.8 °F94 %29.56 in6.0 miNW (310°)13.8 mphRainLight Rain
12:22 PM80.6 °F78.8 °F94 %29.56 in3.0 miNW (310°)15.0 mphRainHeavy Rain
12:27 PM78.8 °F77.0 °F94 %29.56 in2.5 miNW (310°)11.5 mphRainHeavy Rain
12:32 PM77.0 °F75.2 °F94 %29.56 in4.0 miWNW (300°)11.5 mphRainLight Rain
12:42 PM73.4 °F71.6 °F94 %29.55 in4.0 miNorth (350°)16.1 mph27.6 mphRainRain
12:47 PM75.2 °F73.4 °F94 %29.55 in0.8 miNorth (350°)15.0 mph27.6 mphRainHeavy Rain
12:52 PM75.2 °F73.4 °F94 %29.55 in0.8 miNNW (340°)12.7 mph24.2 mphRainHeavy Rain
12:57 PM75.2 °F73.4 °F94 %29.55 in2.0 miNNW (340°)18.4 mph23.0 mphRainHeavy Rain
12:58 PM75.2 °F73.4 °F94 %29.43 in2.0 miNorth (350°)18.4 mph23.0 mph0.24 inRainHeavy Rain
1:08 PM0.0 °F0.0 °FNNW (330°)11.5 mph
1:09 PM69.8 °F69.8 °F100 %29.55 in2.5 miNNW (340°)15.0 mph18.4 mphRainLight Rain
1:14 PM69.8 °F68.0 °F94 %29.54 in9.0 miNorth (350°)17.3 mphRainLight Rain
1:15 PM80.6 °F78.8 °F94 %29.55 in10.0 miNorth (350°)16.1 mphMostly Cloudy
1:19 PM80.6 °F78.8 °F94 %29.55 in10.0 miNorth (350°)17.3 mphRainLight Rain
1:24 PM80.6 °F78.8 °F94 %29.54 in10.0 miNNW (340°)16.1 mphRainRain
1:29 PM80.6 °F78.8 °F94 %29.54 in10.0 miNNW (340°)18.4 mphRainLight Rain
1:34 PM80.6 °F78.8 °F94 %29.54 in10.0 miNNW (340°)18.4 mphRainLight Rain
1:38 PM80.6 °F78.8 °F94 %29.54 in10.0 miNNW (340°)18.4 mphMostly Cloudy
1:42 PM80.6 °F78.8 °F94 %29.54 in10.0 miNNW (340°)18.4 mphLight Drizzle
1:47 PM80.6 °F78.8 °F94 %29.54 in8.0 miNNW (340°)13.8 mphRainLight Rain
1:57 PM80.6 °F78.8 °F94 %29.53 in10.0 miNNW (340°)13.8 mphRainLight Rain
1:58 PM80.6 °F78.8 °F94 %29.41 in10.0 miNNW (340°)13.8 mph0.07 inRainLight Rain
2:13 PM80.6 °F78.8 °F94 %29.53 in5.0 miNNW (330°)13.8 mphRainHeavy Rain
2:18 PM78.8 °F77.0 °F94 %29.53 in4.0 miNNW (340°)19.6 mph24.2 mphRainHeavy Rain
2:28 PM78.8 °F77.0 °F94 %29.53 in2.5 miNorth (350°)17.3 mph24.2 mphRainHeavy Rain
2:33 PM78.8 °F77.0 °F94 %29.53 in3.0 miNNW (340°)16.1 mphRainRain
2:38 PM78.8 °F77.0 °F94 %29.52 in4.0 miNorth (350°)18.4 mphRainHeavy Rain
2:43 PM78.8 °F77.0 °F94 %29.53 in1.5 miNorth (350°)16.1 mph21.9 mphRainHeavy Rain
2:48 PM77.0 °F77.0 °F100 %29.53 in0.5 miNNW (340°)20.7 mph24.2 mphFog-RainHeavy Rain
2:53 PM77.0 °F77.0 °F100 %29.53 in0.5 miNNW (330°)13.8 mph24.2 mphFog-RainHeavy Rain
2:58 PM77.0 °F75.2 °F94 %29.41 in2.0 miNNW (330°)11.5 mph24.2 mph0.44 inRainHeavy Rain
3:08 PM75.2 °F75.2 °F100 %29.53 in3.0 miNW (310°)6.9 mphRainHeavy Rain
3:18 PM77.0 °F75.2 °F94 %29.53 in3.0 miNW (320°)8.1 mphRainHeavy Rain
3:23 PM77.0 °F75.2 °F94 %29.53 in0.8 miNorth (350°)12.7 mphRainHeavy Rain
3:28 PM77.0 °F75.2 °F94 %29.53 in0.5 miNW (320°)6.9 mphFog-RainHeavy Rain
3:33 PM77.0 °F75.2 °F94 %29.53 in0.8 miWNW (290°)5.8 mphRainHeavy Rain
3:38 PM77.0 °F77.0 °F100 %29.53 in2.5 miWest (280°)3.5 mphRainHeavy Rain
3:43 PM77.0 °F77.0 °F100 %29.53 in3.0 miENE (70°)3.5 mphRainHeavy Rain
3:48 PM77.0 °F77.0 °F100 %29.53 in2.5 miNorth (10°)3.5 mphRainHeavy Rain
3:58 PM77.0 °F76.5 °F98 %29.41 in2.0 miNNW (330°)4.6 mph0.42 inRainRain
4:03 PM77.0 °F77.0 °F100 %29.53 in2.5 miNNW (340°)4.6 mphRainHeavy Rain
4:08 PM77.0 °F77.0 °F100 %29.53 in3.0 miNW (320°)2.3 mphRainHeavy Rain
4:13 PM77.0 °F77.0 °F100 %29.53 in2.5 miNW (320°)2.3 mphRainHeavy Rain
4:18 PM77.0 °F77.0 °F100 %29.53 in2.0 miNW (320°)1.2 mphRainHeavy Rain
4:23 PM77.0 °F77.0 °F100 %29.53 in1.8 miCalmRainHeavy Rain
4:28 PM77.0 °F77.0 °F100 %29.53 in1.0 miNE (40°)1.2 mphRainHeavy Rain
4:33 PM77.0 °F77.0 °F100 %29.54 in1.0 miNE (40°)2.3 mphRainRain
4:38 PM77.0 °F77.0 °F100 %29.54 in2.0 miCalmRainRain
4:43 PM77.0 °F77.0 °F100 %29.54 in3.0 miCalmRainHeavy Rain
4:48 PM77.0 °F77.0 °F100 %29.54 in2.5 miVariable2.3 mphRainHeavy Rain
4:53 PM77.0 °F77.0 °F100 %29.54 in4.0 miCalmRainRain
4:58 PM77.0 °F77.0 °F100 %29.42 in9.0 miNorth (350°)2.3 mph0.24 inRainLight Rain
5:03 PM77.0 °F77.0 °F100 %29.54 in10.0 miWNW (300°)1.2 mphRainLight Rain
5:23 PM77.0 °F77.0 °F100 %29.54 in10.0 miCalmRainLight Rain
5:28 PM77.0 °F77.0 °F100 %29.55 in6.0 miCalmRainLight Rain
5:38 PM77.0 °F77.0 °F100 %29.55 in5.0 miCalmRainLight Rain
5:58 PM77.5 °F76.6 °F97 %29.43 in10.0 miSSE (160°)2.3 mph0.04 inRainLight Rain
6:23 PM77.0 °F77.0 °F100 %29.55 in3.0 miSSE (160°)4.6 mphRainLight Rain
6:28 PM77.0 °F77.0 °F100 %29.55 in4.0 miSouth (170°)4.6 mphLight Drizzle
6:29 PM77.0 °F77.0 °F100 %29.56 in5.0 miSouth (170°)3.5 mphMostly Cloudy
6:34 PM77.0 °F77.0 °F100 %29.56 in9.0 miSouth (170°)4.6 mphScattered Clouds
6:40 PM77.0 °F77.0 °F100 %29.56 in10.0 miSouth (180°)5.8 mphLight Drizzle
6:58 PM77.4 °F76.8 °F98 %29.44 in10.0 miSouth (190°)5.8 mph0.03 inLight Drizzle
7:05 PM77.0 °F77.0 °F100 %29.56 in10.0 miSouth (190°)6.9 mphPartly Cloudy
7:07 PM77.0 °F77.0 °F100 %29.56 in10.0 miSouth (190°)6.9 mphLight Drizzle
7:57 PM77.0 °F77.0 °F100 %29.58 in10.0 miSouth (190°)10.4 mphLight Drizzle
7:58 PM77.0 °F76.5 °F98 %29.46 in10.0 miSouth (190°)10.4 mph0.03 inLight Drizzle
8:28 PM77.0 °F77.0 °F100 %29.57 in9.0 miSSW (200°)9.2 mphLight Drizzle
8:33 PM77.0 °F77.0 °F100 %29.57 in8.0 miSSW (200°)10.4 mphLight Drizzle
8:42 PM77.0 °F77.0 °F100 %29.57 in5.0 miSSW (200°)11.5 mphOvercast
8:43 PM77.0 °F77.0 °F100 %29.57 in5.0 miSSW (200°)11.5 mphRainLight Rain
8:48 PM77.0 °F77.0 °F100 %29.58 in8.0 miSSW (210°)9.2 mphLight Drizzle
8:55 PM77.0 °F77.0 °F100 %29.58 in10.0 miSSW (210°)11.5 mphOvercast
8:58 PM77.0 °F76.1 °F97 %29.46 in10.0 miSSW (210°)11.5 mph0.01 inOvercast
9:00 PM77.0 °F75.2 °F94 %29.58 in10.0 miSSW (210°)10.4 mphRainLight Rain
9:10 PM77.0 °F75.2 °F94 %29.59 in9.0 miWSW (240°)10.4 mphRainHeavy Rain
9:20 PM77.0 °F75.2 °F94 %29.59 in2.5 miSW (230°)10.4 mphRainHeavy Rain
9:25 PM77.0 °F77.0 °F100 %29.58 in1.5 miSSW (210°)9.2 mphRainHeavy Rain
9:30 PM77.0 °F77.0 °F100 %29.58 in1.2 miSSW (200°)10.4 mphRainHeavy Rain
9:40 PM77.0 °F77.0 °F100 %29.58 in1.8 miSW (220°)12.7 mphRainRain
9:45 PM77.0 °F77.0 °F100 %29.58 in2.0 miSW (220°)10.4 mphRainHeavy Rain
9:50 PM77.0 °F77.0 °F100 %29.58 in2.5 miSW (220°)10.4 mphRainHeavy Rain
9:55 PM77.0 °F77.0 °F100 %29.57 in2.5 miSSW (210°)8.1 mphRainHeavy Rain
9:58 PM76.8 °F76.3 °F98 %29.45 in2.5 miSSW (200°)11.5 mph0.68 inRainHeavy Rain
10:03 PM77.0 °F77.0 °F100 %29.57 in2.0 miSouth (190°)13.8 mphRainHeavy Rain
10:08 PM77.0 °F77.0 °F100 %29.57 in1.8 miSSW (200°)12.7 mphRainRain
10:13 PM77.0 °F77.0 °F100 %29.57 in2.5 miSSW (210°)9.2 mphRainLight Rain
10:18 PM77.0 °F77.0 °F100 %29.57 in5.0 miSSW (210°)10.4 mphRainLight Rain
10:19 PM77.0 °F77.0 °F100 %29.57 in6.0 miSW (220°)11.5 mphMostly Cloudy
10:20 PM77.0 °F77.0 °F100 %29.57 in6.0 miSW (220°)11.5 mphRainLight Rain
10:25 PM77.0 °F77.0 °F100 %29.57 in8.0 miSW (230°)12.7 mphRainLight Rain
10:45 PM77.0 °F77.0 °F100 %29.58 in7.0 miWest (270°)11.5 mphRainRain
10:58 PM76.5 °F75.7 °F98 %29.44 in4.0 miWSW (240°)10.4 mph0.27 inRainHeavy Rain
11:03 PM77.0 °F75.2 °F94 %29.56 in3.0 miWSW (240°)9.2 mphRainHeavy Rain
11:23 PM75.2 °F75.2 °F100 %29.55 in7.0 miSW (230°)8.1 mphRainRain
11:33 PM75.2 °F75.2 °F100 %29.55 in8.0 miSW (230°)9.2 mphRainRain
11:43 PM75.2 °F75.2 °F100 %29.55 in7.0 miWSW (250°)10.4 mphRainRain
11:48 PM75.2 °F75.2 °F100 %29.55 in8.0 miWSW (250°)8.1 mphRainRain
11:58 PM75.7 °F74.8 °F97 %29.43 in9.0 miWSW (240°)8.1 mph0.21 inRainLight Rain
Hourly data recorded from PGUA, located miles away from Tamuning, Guam







STORIES FROM OUR PARTNERS